timestamp,surface_pressure_avg,surface_temp_avg,battery_voltage,lat,long
2019-06-11 00:00:00+00:00,210.2013,5.4,13.05,47.84626,-54.09684
2019-06-11 00:10:00+00:00,210.9932,5.4,12.97,47.84626,-54.09684
2019-06-11 00:20:00+00:00,211.6531,5.4,12.97,47.84626,-54.09684
2019-06-11 00:30:00+00:00,211.5031,5.4,12.97,47.84626,-54.09684
2019-06-11 00:40:00+00:00,213.0214,5.39,12.97,47.84626,-54.09684
2019-06-11 00:50:00+00:00,215.7947,5.37,12.97,47.84626,-54.09684
2019-06-11 01:00:00+00:00,218.113,5.36,12.89,47.84626,-54.09684
2019-06-11 01:10:00+00:00,219.1748,5.3,12.81,47.84626,-54.09684
2019-06-11 01:20:00+00:00,221.6664,5.3,12.89,47.84626,-54.09684
2019-06-11 01:30:00+00:00,224.1247,5.2,12.89,47.84626,-54.09684
2019-06-11 01:40:00+00:00,226.7265,5.14,12.97,47.84626,-54.09684
2019-06-11 01:50:00+00:00,231.4564,5.1,12.97,47.84626,-54.09684
2019-06-11 02:00:00+00:00,236.8315,5.1,12.89,47.84626,-54.09684
2019-06-11 02:10:00+00:00,240.9897,5.08,12.81,47.84626,-54.09684
2019-06-11 02:20:00+00:00,245.7247,5.01,12.89,47.84626,-54.09684
2019-06-11 02:30:00+00:00,251.7198,5.0,12.89,47.84626,-54.09684
2019-06-11 02:40:00+00:00,257.6581,5.0,12.89,47.84626,-54.09684
2019-06-11 02:50:00+00:00,262.1431,5.0,12.89,47.84626,-54.09684
2019-06-11 03:00:00+00:00,266.6164,5.0,12.81,47.84626,-54.09684
2019-06-11 03:10:00+00:00,272.4897,5.0,12.81,47.84626,-54.09684
2019-06-11 03:20:00+00:00,278.488,5.0,12.89,47.84626,-54.09684
2019-06-11 03:30:00+00:00,285.7114,5.09,12.89,47.84626,-54.09684
2019-06-11 03:40:00+00:00,291.433,5.09,12.89,47.84626,-54.09684
2019-06-11 03:50:00+00:00,297.8131,5.08,12.89,47.84626,-54.09684
2019-06-11 04:00:00+00:00,304.3947,5.0,12.81,47.84626,-54.09684
2019-06-11 04:10:00+00:00,309.9313,4.7,12.73,47.84626,-54.09684
2019-06-11 04:20:00+00:00,314.5914,4.5,12.81,47.84626,-54.09684
2019-06-11 04:30:00+00:00,319.6396,4.5,12.81,47.84626,-54.09684
2019-06-11 04:40:00+00:00,324.0413,4.5,12.89,47.84626,-54.09684
2019-06-11 04:50:00+00:00,324.7662,4.5,12.89,47.84626,-54.09684
2019-06-11 05:00:00+00:00,325.0696,4.54,12.81,47.84626,-54.09684
2019-06-11 05:10:00+00:00,327.588,4.67,12.73,47.84626,-54.09684
2019-06-11 05:20:00+00:00,330.2012,4.79,12.81,47.84626,-54.09684
2019-06-11 05:30:00+00:00,330.483,4.8,12.81,47.84626,-54.09684
2019-06-11 05:40:00+00:00,331.1646,4.8,12.81,47.84626,-54.09684
2019-06-11 05:50:00+00:00,335.4529,4.8,12.89,47.84626,-54.09684
2019-06-11 06:00:00+00:00,338.8046,4.84,12.81,47.84626,-54.09684
2019-06-11 06:10:00+00:00,338.2429,4.91,12.73,47.84626,-54.09684
2019-06-11 06:20:00+00:00,339.1761,4.99,12.81,47.84626,-54.09684
2019-06-11 06:30:00+00:00,341.4232,5.0,12.81,47.84626,-54.09684
2019-06-11 06:40:00+00:00,341.0698,5.0,12.81,47.84626,-54.09684
2019-06-11 06:50:00+00:00,340.4562,5.0,12.81,47.84626,-54.09684
2019-06-11 07:00:00+00:00,340.1213,4.96,12.73,47.84626,-54.09684
2019-06-11 07:10:00+00:00,337.703,4.9,12.65,47.84626,-54.09684
2019-06-11 07:20:00+00:00,335.6179,4.9,12.73,47.84626,-54.09684
2019-06-11 07:30:00+00:00,331.4464,4.9,12.73,47.84626,-54.09684
2019-06-11 07:40:00+00:00,326.6846,4.9,12.81,47.84626,-54.09684
2019-06-11 07:50:00+00:00,324.8547,4.9,12.81,47.84626,-54.09684
2019-06-11 08:00:00+00:00,320.3547,4.9,12.73,47.84626,-54.09684
2019-06-11 08:10:00+00:00,311.0114,4.9,12.65,47.84626,-54.09684
2019-06-11 08:20:00+00:00,302.5513,4.9,12.73,47.84626,-54.09684
2019-06-11 08:30:00+00:00,295.818,4.9,12.81,47.84626,-54.09684
2019-06-11 08:40:00+00:00,286.8897,4.9,12.81,47.84626,-54.09684
2019-06-11 08:50:00+00:00,277.4647,4.9,12.89,47.84626,-54.09684
2019-06-11 09:00:00+00:00,271.4181,4.9,12.89,47.84626,-54.09684
2019-06-11 09:10:00+00:00,264.7181,4.9,12.81,47.84626,-54.09684
2019-06-11 09:20:00+00:00,257.2048,4.9,12.97,47.84626,-54.09684
2019-06-11 09:30:00+00:00,251.3131,4.9,13.21,47.84626,-54.09684
2019-06-11 09:40:00+00:00,246.5847,4.9,13.37,47.84626,-54.09684
2019-06-11 09:50:00+00:00,238.9731,4.9,13.53,47.84626,-54.09684
2019-06-11 10:00:00+00:00,232.7481,4.9,13.44,47.84626,-54.09684
2019-06-11 10:10:00+00:00,229.1348,4.9,13.37,47.84626,-54.09684
2019-06-11 10:20:00+00:00,225.6198,4.9,13.53,47.84626,-54.09684
2019-06-11 10:30:00+00:00,220.7481,4.9,13.53,47.84626,-54.09684
2019-06-11 10:40:00+00:00,218.2614,4.9,13.6,47.84626,-54.09684
2019-06-11 10:50:00+00:00,217.9265,4.92,13.68,47.84626,-54.09684
2019-06-11 11:00:00+00:00,213.9748,4.94,13.76,47.84626,-54.09684
2019-06-11 11:10:00+00:00,208.9097,4.94,13.84,47.84626,-54.09684
2019-06-11 11:20:00+00:00,207.8664,4.96,14.48,47.84626,-54.09684
2019-06-11 11:30:00+00:00,207.0264,4.97,14.72,47.84626,-54.09684
2019-06-11 11:40:00+00:00,203.3897,4.97,15.2,47.84626,-54.09684
2019-06-11 11:50:00+00:00,201.8364,4.97,15.11,47.84626,-54.09684
2019-06-11 12:00:00+00:00,202.5648,4.92,14.4,47.84626,-54.09684
2019-06-11 12:10:00+00:00,200.0964,4.9,14.72,47.84626,-54.09684
2019-06-11 12:20:00+00:00,197.8514,4.9,15.83,47.84626,-54.09684
2019-06-11 12:30:00+00:00,200.0798,4.9,14.96,47.84626,-54.09684
2019-06-11 12:40:00+00:00,200.1531,4.8,14.8,47.84626,-54.09684
2019-06-11 12:50:00+00:00,198.9832,4.8,14.8,47.84626,-54.09684
2019-06-11 13:00:00+00:00,200.1198,4.8,14.72,47.84626,-54.09684
2019-06-11 13:10:00+00:00,202.7165,4.7,14.64,47.84626,-54.09684
2019-06-11 13:20:00+00:00,203.4648,4.7,14.8,47.84626,-54.09684
2019-06-11 13:30:00+00:00,204.0314,4.69,14.72,47.84626,-54.09684
2019-06-11 13:40:00+00:00,205.7564,4.63,14.72,47.84626,-54.09684
2019-06-11 13:50:00+00:00,206.6864,4.66,14.64,47.84626,-54.09684
2019-06-11 14:00:00+00:00,207.708,4.7,14.56,47.84626,-54.09684
2019-06-11 14:10:00+00:00,208.6647,4.7,14.56,47.84626,-54.09684
2019-06-11 14:20:00+00:00,210.6048,4.7,14.56,47.84626,-54.09684
2019-06-11 14:30:00+00:00,211.9715,4.7,14.4,47.84626,-54.09684
2019-06-11 14:40:00+00:00,215.8314,4.69,14.4,47.84626,-54.09684
2019-06-11 14:50:00+00:00,219.9098,4.7,14.4,47.84626,-54.09684
2019-06-11 15:00:00+00:00,223.8698,4.7,14.32,47.84626,-54.09684
2019-06-11 15:10:00+00:00,228.4015,4.79,14.32,47.84626,-54.09684
2019-06-11 15:20:00+00:00,235.3481,4.8,14.56,47.84626,-54.09684
2019-06-11 15:30:00+00:00,242.6597,4.88,14.56,47.84626,-54.09684
2019-06-11 15:40:00+00:00,249.0364,4.9,14.4,47.84626,-54.09684
2019-06-11 15:50:00+00:00,255.7698,4.9,14.32,47.84626,-54.09684
2019-06-11 16:00:00+00:00,265.5698,4.9,14.24,47.84626,-54.09684
2019-06-11 16:10:00+00:00,272.5347,4.96,14.24,47.84626,-54.09684
2019-06-11 16:20:00+00:00,277.7214,4.98,14.24,47.84626,-54.09684
2019-06-11 16:30:00+00:00,285.313,4.99,14.32,47.84626,-54.09684
2019-06-11 16:40:00+00:00,295.7648,5.0,14.32,47.84626,-54.09684
2019-06-11 16:50:00+00:00,300.4414,5.0,14.48,47.84626,-54.09684
2019-06-11 17:00:00+00:00,302.233,5.0,14.24,47.84626,-54.09684
2019-06-11 17:10:00+00:00,306.8547,5.0,14.16,47.84626,-54.09684
2019-06-11 17:20:00+00:00,312.398,5.0,14.24,47.84626,-54.09684
2019-06-11 17:30:00+00:00,313.0747,5.04,14.24,47.84626,-54.09684
2019-06-11 17:40:00+00:00,313.5046,5.1,14.24,47.84626,-54.09684
2019-06-11 17:50:00+00:00,316.1896,5.1,14.32,47.84626,-54.09684
2019-06-11 18:00:00+00:00,318.1163,5.12,14.16,47.84626,-54.09684
2019-06-11 18:10:00+00:00,317.6447,5.15,14.08,47.84626,-54.09684
2019-06-11 18:20:00+00:00,319.0463,5.17,14.08,47.84626,-54.09684
2019-06-11 18:30:00+00:00,322.1996,4.98,14.08,47.84626,-54.09684
2019-06-11 18:40:00+00:00,323.9246,4.7,14.16,47.84626,-54.09684
2019-06-11 18:50:00+00:00,321.7679,4.7,14.24,47.84626,-54.09684
2019-06-11 19:00:00+00:00,322.2347,4.7,14.16,47.84626,-54.09684
2019-06-11 19:10:00+00:00,323.8463,4.64,14.08,47.84626,-54.09684
2019-06-11 19:20:00+00:00,323.778,4.69,14.24,47.84626,-54.09684
2019-06-11 19:30:00+00:00,320.3997,4.7,14.24,47.84626,-54.09684
2019-06-11 19:40:00+00:00,320.308,4.6,14.16,47.84626,-54.09684
2019-06-11 19:50:00+00:00,318.9163,4.52,14.24,47.84626,-54.09684
2019-06-11 20:00:00+00:00,313.1414,4.7,14.08,47.84626,-54.09684
2019-06-11 20:10:00+00:00,309.1114,4.85,14.0,47.84626,-54.09684
2019-06-11 20:20:00+00:00,305.7313,4.7,14.08,47.84626,-54.09684
2019-06-11 20:30:00+00:00,301.3546,4.7,14.0,47.84626,-54.09684
2019-06-11 20:40:00+00:00,295.7297,4.7,14.08,47.84626,-54.09684
2019-06-11 20:50:00+00:00,291.3198,4.8,14.08,47.84626,-54.09684
2019-06-11 21:00:00+00:00,285.353,4.9,14.0,47.84626,-54.09684
2019-06-11 21:10:00+00:00,277.4547,4.6,13.92,47.84626,-54.09684
2019-06-11 21:20:00+00:00,272.3347,4.66,14.0,47.84626,-54.09684
2019-06-11 21:30:00+00:00,266.1314,4.7,14.0,47.84626,-54.09684
2019-06-11 21:40:00+00:00,257.813,4.7,14.0,47.84626,-54.09684
2019-06-11 21:50:00+00:00,251.5881,4.72,14.0,47.84626,-54.09684
2019-06-11 22:00:00+00:00,247.7331,4.79,13.92,47.84626,-54.09684
2019-06-11 22:10:00+00:00,242.1414,4.8,13.76,47.84626,-54.09684
2019-06-11 22:20:00+00:00,233.9865,4.8,13.76,47.84626,-54.09684
2019-06-11 22:30:00+00:00,228.9247,4.8,13.68,47.84626,-54.09684
2019-06-11 22:40:00+00:00,227.0864,4.8,13.68,47.84626,-54.09684
2019-06-11 22:50:00+00:00,225.4665,4.8,13.68,47.84626,-54.09684
2019-06-11 23:00:00+00:00,220.4898,4.9,13.6,47.84626,-54.09684
2019-06-11 23:10:00+00:00,215.1398,4.9,13.44,47.84626,-54.09684
2019-06-11 23:20:00+00:00,212.1664,4.98,13.44,47.84626,-54.09684
2019-06-11 23:30:00+00:00,209.9098,5.0,13.37,47.84626,-54.09684
2019-06-11 23:40:00+00:00,206.0048,5.0,13.37,47.84626,-54.09684
2019-06-11 23:50:00+00:00,201.7598,5.0,13.29,47.84626,-54.09684
